Terminal Aerodrome Forecast
Issued by NWS

Home | Current Version | Previous Version | Text Only | Print | Product List | Glossary On
Versions: 1 2 3 4 5 6 7 8 9 10 11 12 13 14 15 16 17 18 19 20 21 22 23 24 25 26 27 28 29 30 31 32 33 34 35 36 37 38 39 40 41 42 43 44 45 46 47 48 49 50
000
FTAK31 PANC 261641 AAB
TAFACV
TAF AMD
PACV 261641Z 2617/2712 VRB03KT P6SM BKN025 BKN120
      TEMPO 2617/2620 BKN015 OVC025
     FM262100 23006KT P6SM SCT030 BKN050
     FM270600 VRB03KT P6SM SCT050 BKN120=

USA.gov is the U.S. government's official web portal to all federal, state and local government web resources and services.